[[{"header":{"parameterUnit":"m.s-1","parameterCategory":1,"la1":30.2991,"la2":30.254,"lo1":-89.0895,"lo2":-89.0444,"dy":0.0017,"dx":0.0017,"nx":28,"ny":28,"refTime":"2024-03-24T03:00:00:Z","depth":0,"parameterNumber":2,"parameterNumberName":"U-component_of_WINDS"},"data":[0,0,0,0,0,0,0,0,0,0,0,0,0,0,0,0,0,0,0,0,0,0,0,0,0,0,0,0,0,0,0,0,0,0,0,0,0,0,0,0,0,0,0,0,0,0,0,0,0,0,0,0,0,0,0,0,0,0,-7.1006,-7.1008,0,-7.1199,-7.1201,-7.1203,-7.1256,-7.1255,-7.1254,-7.1253,-7.1449,-7.1455,-7.1462,0,0,0,0,0,0,0,0,0,0,0,0,0,-7.0682,-7.0688,-7.1006,-7.1008,-7.101,-7.1199,-7.1201,-7.1204,-7.1256,-7.1255,-7.1254,-7.1252,-7.1447,-7.1455,-7.1462,0,0,0,0,0,0,0,0,0,0,0,0,0,-7.0843,-7.0689,-7.1005,-7.1059,-7.1066,-7.1198,-7.1201,-7.1205,-7.1257,-7.1255,-7.1253,-7.1252,-7.1445,-7.1454,-7.1463,-7.1555,0,0,-7.1492,-7.1496,0,0,0,0,0,0,0,0,-7.0834,-7.0855,-7.1049,-7.1056,-7.1064,-7.1202,-7.1159,-7.1322,-7.1257,-7.1184,-7.1253,-7.1251,-7.1368,-7.1384,-7.1424,-7.1564,-7.1573,-7.1493,-7.1499,-7.1503,-7.1505,0,0,0,0,0,0,0,-7.0823,-7.0847,-7.1082,-7.1052,-7.1061,-7.1074,-7.1095,-7.119,-7.1283,-7.119,-7.1195,-7.1217,-7.1372,-7.1415,-7.1429,-7.1575,-7.1493,-7.1501,-7.1507,-7.151,-7.1801,-7.1803,0,0,0,0,0,0,-7.0803,-7.0838,-7.1076,-7.1088,-7.0943,-7.1081,-7.1105,-7.1159,-7.1282,-7.13,-7.1218,-7.1219,-7.1399,-7.1418,-7.1436,-7.1551,-7.1503,-7.1511,-7.1517,-7.1799,-7.1802,-7.1804,0,0,0,0,0,0,-7.0795,-7.0823,-7.1068,-7.0964,-7.0996,-7.1088,-7.1149,-7.1164,-7.1206,-7.1303,-7.132,-7.1245,-7.1399,-7.1423,-7.1525,-7.1558,-7.1516,-7.1524,-7.1797,-7.18,-7.1803,-7.1781,0,0,0,0,0,0,-7.0786,-7.082,-7.0856,-7.0965,-7.1002,-7.1154,-7.1151,-7.1169,-7.1223,-7.1225,-7.1333,-7.1349,-7.1399,-7.1511,-7.1534,-7.157,-7.1532,-7.1794,-7.1798,-7.1802,-7.1779,-7.1783,-7.1786,0,0,0,0,0,-7.0774,-7.0842,-7.0858,-7.0886,-7.1048,-7.1156,-7.1177,-7.1234,-7.1225,-7.1262,-7.1324,-7.1345,-7.1551,-7.1521,-7.1548,-7.1587,-7.1792,-7.1797,-7.1801,-7.1778,-7.1782,-7.1786,0,0,0,0,0,0,-7.0734,-7.0857,-7.0876,-7.0981,-7.1057,-7.1164,-7.1212,-7.1237,-7.1318,-7.1317,-7.1384,-7.1408,-7.1505,-7.1557,-7.1521,-7.1683,-7.1672,-7.1682,-7.1645,-7.165,-7.1654,-7.1638,-7.1539,0,0,0,0,0,-7.0738,-7.0815,-7.0919,-7.1001,-7.1039,-7.1119,-7.1168,-7.1206,-7.1288,-7.132,-7.139,-7.1469,-7.1551,-7.1604,-7.1685,-7.1788,-7.1812,-7.1829,-7.1832,-7.1835,-7.1842,-7.19,-7.1908,-7.1819,-7.1819,-7.1819,0,0,-7.0745,-7.0822,-7.0867,-7.0995,-7.1059,-7.1137,-7.1146,-7.1228,-7.1287,-7.1333,-7.1433,-7.1488,-7.158,-7.1683,-7.1732,-7.1729,-7.1873,-7.1841,-7.1842,-7.1848,-7.1906,-7.1914,-7.1921,-7.1822,-7.1822,-7.1821,0,0,-7.0799,-7.0866,-7.0941,-7.1006,-7.1103,-7.1156,-7.1174,-7.1278,-7.1316,-7.1419,-7.1454,-7.1526,-7.1667,-7.1731,-7.1782,-7.1862,-7.1884,-7.1887,-7.1904,-7.196,-7.1967,-7.1974,-7.2001,-7.201,-7.1894,-7.1894,-7.1894,0,-7.0796,-7.0916,-7.0977,-7.1058,-7.1113,-7.116,-7.1237,-7.1296,-7.1415,-7.1452,-7.1447,-7.1626,-7.1691,-7.1809,-7.1829,-7.1869,-7.1892,-7.1873,-7.1961,-7.1968,-7.1975,-7.2002,-7.2012,-7.1894,-7.1894,-7.1894,-7.1894,0,-7.0907,-7.0989,-7.1039,-7.1153,-7.1214,-7.1292,-7.1366,-7.1421,-7.1454,-7.1507,-7.1611,-7.1692,-7.179,-7.1822,-7.1854,-7.1945,-7.194,-7.1948,-7.1938,-7.1982,-7.2008,-7.2019,-7.1893,-7.1893,-7.1893,-7.1894,0,0,-7.0938,-7.1086,-7.1103,-7.1155,-7.1266,-7.1331,-7.1413,-7.151,-7.1555,-7.1636,-7.1705,-7.1824,-7.1832,-7.189,-7.1931,-7.198,-7.2037,-7.1982,-7.1985,-7.1988,-7.2141,-7.2133,-7.2144,-7.2054,-7.2056,-7.2058,-7.2133,0,-7.1004,-7.115,-7.1209,-7.1328,-7.1404,-7.1451,-7.1522,-7.1597,-7.165,-7.1723,-7.1782,-7.1865,-7.187,-7.1905,-7.1956,-7.2019,-7.2068,-7.2015,-7.2118,-7.2121,-7.2091,-7.2158,-7.2149,-7.2216,-7.2144,-7.2145,-7.2147,0,-7.11,-7.1182,-7.1308,-7.1411,-7.1445,-7.1508,-7.1601,-7.1671,-7.1759,-7.1794,-7.1859,-7.1898,-7.1985,-7.1971,-7.2092,-7.2054,-7.21,-7.2138,-7.2142,-7.2152,-7.2134,-7.2167,-7.2239,-7.2247,-7.2164,-7.2162,-7.2161,0,-7.1108,-7.1251,-7.1344,-7.1388,-7.151,-7.1553,-7.1606,-7.1692,-7.1747,-7.1829,-7.1865,-7.1957,-7.2006,-7.2076,-7.2138,-7.2123,-7.2252,-7.2245,-7.2283,-7.2281,-7.2306,-7.2303,-7.2383,-7.2339,-7.2339,-7.2339,-7.2339,0,-7.1175,-7.125,-7.135,-7.1407,-7.1493,-7.156,-7.1643,-7.1699,-7.1776,-7.1845,-7.1891,-7.1955,-7.2035,-7.2109,-7.2159,-7.225,-7.2273,-7.2303,-7.2315,-7.2298,-7.2293,-7.2327,-7.2323,-7.2342,-7.2341,-7.234,-7.234,0,-7.1197,-7.1267,-7.1372,-7.148,-7.1509,-7.1567,-7.1659,-7.1717,-7.1773,-7.186,-7.1884,-7.1972,-7.2062,-7.2132,-7.2249,-7.2282,-7.2379,-7.2392,-7.2349,-7.2354,-7.2388,-7.2383,-7.2491,-7.2508,-7.2454,-7.2454,-7.2455,0,-7.1233,-7.1292,-7.1407,-7.1456,-7.1509,-7.1589,-7.1645,-7.1714,-7.1771,-7.1876,-7.1921,-7.2014,-7.2092,-7.2234,-7.2308,-7.2398,-7.2413,-7.2445,-7.2427,-7.2408,-7.2412,-7.2407,-7.2412,-7.2446,-7.2446,-7.2446,-7.2447,0,-7.129,-7.1323,-7.1402,-7.1494,-7.156,-7.1635,-7.1712,-7.175,-7.1834,-7.1895,-7.1988,-7.2048,-7.2169,-7.226,-7.2358,-7.2413,-7.2443,-7.2452,-7.2466,-7.2447,-7.2419,-7.2433,-7.2352,-7.2449,-7.2449,-7.2448,-7.2448,-7.2448,-7.132,-7.1374,-7.1463,-7.155,-7.1616,-7.1686,-7.1746,-7.181,-7.1888,-7.1991,-7.2028,-7.2123,-7.221,-7.2345,-7.2401,-7.2476,-7.2478,-7.2497,-7.2502,-7.2505,-7.2503,-7.2409,-7.2495,-7.2495,-7.2495,-7.2495,-7.2495,0,-7.1378,-7.1438,-7.1518,-7.1623,-7.1692,-7.1716,-7.1803,-7.1858,-7.1941,-7.202,-7.2097,-7.2203,-7.2293,-7.2375,-7.2469,-7.2514,-7.253,-7.2536,-7.2532,-7.2544,-7.2497,-7.2475,-7.2521,-7.2521,-7.2521,-7.2521,-7.2521,-7.2521,-7.1416,-7.1509,-7.1552,-7.1678,-7.1738,-7.1831,-7.1879,-7.1944,-7.2008,-7.2125,-7.22,-7.2253,-7.2333,-7.2433,-7.2517,-7.2539,-7.257,-7.2572,-7.2597,-7.2551,-7.2547,-7.2544,-7.2524,-7.2579,-7.2579,-7.2638,-7.2639,-7.2639]},{"header":{"parameterUnit":"m.s-1","parameterCategory":1,"la1":30.2991,"la2":30.254,"lo1":-89.0895,"lo2":-89.0444,"dy":0.0017,"dx":0.0017,"nx":28,"ny":28,"refTime":"2024-03-24T03:00:00:Z","depth":0,"parameterNumber":3,"parameterNumberName":"V-component_of_WINDS"},"data":[0,0,0,0,0,0,0,0,0,0,0,0,0,0,0,0,0,0,0,0,0,0,0,0,0,0,0,0,0,0,0,0,0,0,0,0,0,0,0,0,0,0,0,0,0,0,0,0,0,0,0,0,0,0,0,0,0,0,5.901,5.9011,0,5.91,5.9101,5.9102,5.9109,5.9108,5.9107,5.9106,5.9197,5.92,5.9203,0,0,0,0,0,0,0,0,0,0,0,0,0,5.8845,5.8848,5.901,5.9011,5.9012,5.91,5.9101,5.9102,5.9109,5.9107,5.9106,5.9105,5.9195,5.9199,5.9203,0,0,0,0,0,0,0,0,0,0,0,0,0,5.8924,5.8849,5.901,5.9026,5.9028,5.91,5.9101,5.9103,5.9109,5.9107,5.9106,5.9105,5.9194,5.9199,5.9204,5.9265,0,0,5.9219,5.9221,0,0,0,0,0,0,0,0,5.8919,5.893,5.9022,5.9025,5.9028,5.9092,5.9076,5.9157,5.9109,5.9078,5.9106,5.9104,5.9163,5.917,5.919,5.9269,5.9273,5.922,5.9223,5.9225,5.9226,0,0,0,0,0,0,0,5.8914,5.8926,5.9046,5.9024,5.9027,5.9029,5.9039,5.9092,5.9128,5.9081,5.9082,5.9092,5.9164,5.9186,5.9193,5.9274,5.922,5.9224,5.9227,5.9229,5.9413,5.9414,0,0,0,0,0,0,5.8905,5.8921,5.9043,5.9048,5.8969,5.9033,5.9044,5.9073,5.9127,5.9134,5.9093,5.9092,5.9178,5.9187,5.9196,5.9274,5.9225,5.923,5.9233,5.9411,5.9413,5.9415,0,0,0,0,0,0,5.8902,5.8916,5.9039,5.8985,5.9001,5.9038,5.907,5.9075,5.9097,5.9137,5.9143,5.9109,5.9177,5.9189,5.9249,5.9277,5.9232,5.9236,5.9409,5.9411,5.9414,5.9429,0,0,0,0,0,0,5.8897,5.8915,5.8937,5.8986,5.9004,5.909,5.9071,5.9078,5.9106,5.9105,5.9153,5.9159,5.9177,5.9241,5.9254,5.9283,5.924,5.9406,5.941,5.9413,5.9427,5.9432,5.9437,0,0,0,0,0,5.8891,5.8937,5.8939,5.8953,5.9033,5.9092,5.9102,5.9122,5.9108,5.9132,5.9158,5.9158,5.9272,5.9247,5.9262,5.9293,5.9405,5.9409,5.9413,5.9424,5.9431,5.9437,0,0,0,0,0,0,5.889,5.8943,5.8946,5.9009,5.9046,5.9093,5.9124,5.9128,5.9169,5.9166,5.9188,5.9199,5.9259,5.9282,5.9254,5.9357,5.9337,5.9344,5.9341,5.9348,5.9353,5.9347,5.9245,0,0,0,0,0,5.8897,5.894,5.8984,5.9036,5.9055,5.9086,5.9112,5.9124,5.9163,5.9179,5.9209,5.9247,5.9292,5.9321,5.9364,5.943,5.9442,5.9459,5.9464,5.9468,5.9475,5.9515,5.9524,5.9429,5.9429,5.9429,0,0,5.8912,5.8947,5.8972,5.9037,5.9067,5.9112,5.9099,5.9146,5.9181,5.9185,5.9246,5.9269,5.9313,5.9378,5.9407,5.9398,5.9504,5.9473,5.9477,5.9481,5.952,5.9529,5.9537,5.9432,5.9431,5.9431,0,0,5.8964,5.8993,5.9041,5.9073,5.9119,5.914,5.9152,5.9199,5.9216,5.9276,5.9282,5.9323,5.9399,5.9431,5.9457,5.9525,5.9528,5.9538,5.9567,5.9606,5.9614,5.9621,5.9648,5.9657,5.9544,5.9544,5.9544,0,5.8977,5.9045,5.9065,5.9114,5.9143,5.9152,5.9202,5.9231,5.9288,5.9309,5.9298,5.9396,5.9426,5.95,5.9517,5.9537,5.9553,5.9533,5.9611,5.9618,5.9625,5.9651,5.9661,5.9546,5.9545,5.9545,5.9545,0,5.9061,5.9108,5.9141,5.9199,5.9232,5.9281,5.931,5.9341,5.9351,5.9373,5.9437,5.9473,5.9526,5.9544,5.9552,5.962,5.9614,5.9607,5.9587,5.9635,5.966,5.967,5.9547,5.9547,5.9547,5.9546,0,0,5.9113,5.9184,5.9196,5.9224,5.9278,5.9315,5.9365,5.9418,5.9446,5.9486,5.953,5.9596,5.9591,5.9621,5.9634,5.9668,5.9724,5.9657,5.9659,5.9671,5.9805,5.9812,5.9823,5.9725,5.9727,5.9729,5.9802,0,5.9173,5.9264,5.9285,5.9363,5.9409,5.9419,5.9463,5.9501,5.9525,5.9567,5.9593,5.964,5.9628,5.9647,5.9681,5.971,5.9751,5.9704,5.9769,5.9771,5.976,5.9836,5.9842,5.991,5.9812,5.9814,5.9815,0,5.9255,5.9299,5.9383,5.9434,5.9454,5.9493,5.9545,5.9585,5.963,5.9645,5.968,5.969,5.9745,5.9722,5.9799,5.9766,5.9794,5.9812,5.9815,5.9824,5.9797,5.9849,5.9931,5.9943,5.983,5.9829,5.9828,0,5.9289,5.937,5.9431,5.9454,5.9514,5.9542,5.9569,5.9612,5.9643,5.9688,5.971,5.976,5.9788,5.9828,5.9852,5.9832,5.9929,5.9906,5.9944,5.9944,5.9965,5.9964,6.0056,5.9979,5.9978,5.9978,5.9978,0,5.9355,5.9407,5.9448,5.9486,5.9544,5.9569,5.9626,5.9652,5.9691,5.9736,5.9746,5.9788,5.9816,5.9862,5.9881,5.9944,5.9956,5.9971,5.9976,5.9972,5.997,5.9991,5.9988,5.9981,5.998,5.998,5.9979,0,5.9404,5.9433,5.9502,5.9554,5.9568,5.961,5.9655,5.9693,5.9717,5.9773,5.9788,5.9826,5.9881,5.9909,5.9976,5.999,6.0062,6.0062,6.0047,6.005,6.0087,6.0085,6.0198,6.0216,6.0124,6.0125,6.0125,0,5.9446,5.9486,5.9543,5.9574,5.9602,5.9651,5.9684,5.971,5.9744,5.98,5.9832,5.9888,5.9934,6.0021,6.0056,6.0108,6.0112,6.0149,6.012,6.0116,6.0117,6.0115,6.0121,6.0154,6.0155,6.0156,6.0156,0,5.9518,5.9531,5.9578,5.9632,5.9672,5.9715,5.9757,5.9782,5.9815,5.9853,5.991,5.9946,6.0017,6.0074,6.013,6.0157,6.0164,6.0165,6.0177,6.0174,6.0165,6.0174,6.0064,6.0162,6.0162,6.0161,6.0161,6.0161,5.9566,5.9604,5.9652,5.9705,5.974,5.9781,5.982,5.9851,5.9899,5.9959,5.9971,6.0033,6.0079,6.0156,6.0185,6.0235,6.0227,6.0244,6.0248,6.0253,6.0257,6.0156,6.0244,6.0244,6.0244,6.0244,6.0244,0,5.9642,5.9673,5.9722,5.9783,5.9826,5.9828,5.9876,5.9912,5.9966,6.0009,6.0056,6.0123,6.0178,6.0218,6.0275,6.0307,6.0311,6.0321,6.032,6.0327,6.0258,6.0244,6.0317,6.0317,6.0317,6.0317,6.0317,6.0317,5.9686,5.9752,5.9771,5.9855,5.9886,5.9947,5.9975,6.0013,6.0048,6.0124,6.017,6.0196,6.0238,6.0299,6.0351,6.0361,6.0383,6.0393,6.0404,6.0339,6.0331,6.0324,6.0311,6.0397,6.0397,6.0469,6.047,6.047]}]]